Capitol Logistics 442


KPHL
Philadelphia International Airport
Philadelphia, Pennsylvania, US
KCVG
Cincinnati/Northern Kentucky International Airport
Covington, Kentucky, US

Activity Log

Date Flight Route Aircraft Duration
09/23/2019 CPX442 MXE PENSY J110 FLIRT J6 MRB J6 COLNS GAVNN4 B738 1h 37m

Route Details

Aircraft Information
Primary: Boeing 737-800BCF
Backup: Not Available
Route Data
Distance: 440nm
Sched. Duration: 1h 47m
Avg. Duration: 1h 37m (-9m)
Times Flown: 1
Recm'd Route: MXE PENSY J110 FLIRT J6 MRB J6 COLNS GAVNN4
Planned Altitude: 32,000ft
Origin Wx: KPHL 251054Z 03011KT 10SM BKN065 BKN100 BKN250 08/01 A3020 RMK AO2 SLP224 T00830006
Dest. Wx: KCVG 251052Z 05011KT 6SM -RA OVC020 07/04 A3010 RMK AO2 RAB23 SLP191 P0001 T00720039
Notes:

Financial History
Total Freight: 25,872lbs
Average Load: 25,872lbs/flt
Fuel Used: 7,833lbs
Avg. Fuel Used: 7,833lbs/flt
Fuel Expense: $7,050
Avg. Fuel Expense: $7,050
Avg. Fuel Cost: $0.90/lbs
Total Gross Income: $32,857
Pilot Pay: $229
Total Expenses: $3,601
Total Revenue: $21,817
Average Revenue: $32,857.44